Shelby, NC

4:45 PM EST on December 07, 2019 (GMT -0500)
Shelby Municipal

Weather History for KEHO - October, 2019

Change the Weather History Date:

Thursday, October 24, 2019

  Actual Average (WUND) Record (WUND)
Temperature  
Mean Temperature 52 °F -  
Max Temperature 68 °F - - (-1)
Min Temperature 36 °F - - (-1)
Degree Days  
Heating Degree Days 13    
Growing Degree Days 2 (Base 50)    
Moisture  
Dew Point 41 °F    
Average Humidity 72    
Maximum Humidity 99    
Minimum Humidity 34    
Precipitation  
Precipitation 0.00 in - - ()
Sea Level Pressure  
Sea Level Pressure 30.29 in    
Wind  
Wind Speed 1 mph (ENE)    
Max Wind Speed 8 mph    
Max Gust Speed -    
Visibility 10 miles    
Events      
Averages and records for this station are not official NWS values.
T = Trace of Precipitation, MM = Missing Value Source: NWS Daily Summary

Daily Weather History Graph

Daily Weather History Graph

Search for Another Location

Airport or City:

Astronomy

Oct. 24, 2019 Rise Set
Actual Time 7:40 AM EDT 6:40 PM EDT
Civil Twilight 7:14 AM EDT 7:06 PM EDT
Nautical Twilight 6:44 AM EDT 7:36 PM EDT
Astronomical Twilight 6:15 AM EDT 8:05 PM EDT
Moon 3:22 AM EDT (10/24) 4:55 PM EDT (10/24)
Length of Visible Light 11h 52m
Length of Day
11h 00m
Waning Crescent, 17% of the Moon is Illuminated
Oct 24
Waning Crescent
Oct 27
New
Nov 4
First Quarter
Nov 12
Full
Nov 19
Last Quarter

Hourly Weather History & Observations

Time (EDT) Temp. Windchill Dew Point Humidity Pressure Visibility Wind Dir Wind Speed Gust Speed Precip Events Conditions
12:15 AM 43.5 °F - 41.9 °F 94% 30.25 in 10.0 mi Calm Calm - N/A   Clear
12:35 AM 42.3 °F - 41.4 °F 97% 30.25 in 10.0 mi Calm Calm - N/A   Clear
12:55 AM 43.9 °F - 42.4 °F 95% 30.25 in 10.0 mi Calm Calm - N/A   Clear
1:15 AM 43.3 °F - 41.9 °F 95% 30.26 in 10.0 mi Calm Calm - N/A   Clear
1:35 AM 42.1 °F - 41.5 °F 98% 30.26 in 10.0 mi Calm Calm - N/A   Clear
1:55 AM 41.2 °F 39.2 °F 40.8 °F 99% 30.26 in 10.0 mi NNE 3.5 mph - N/A   Clear
2:15 AM 41.2 °F - 40.6 °F 98% 30.26 in 10.0 mi Calm Calm - N/A   Clear
2:35 AM 40.5 °F 38.4 °F 39.9 °F 98% 30.26 in 10.0 mi NNE 3.5 mph - N/A   Clear
2:55 AM 40.5 °F 38.4 °F 40.1 °F 99% 30.25 in 10.0 mi NE 3.5 mph - N/A   Clear
3:15 AM 40.6 °F 38.6 °F 40.1 °F 98% 30.26 in 10.0 mi NE 3.5 mph - N/A   Clear
3:35 AM 40.6 °F - 39.4 °F 95% 30.25 in 10.0 mi Calm Calm - N/A   Clear
3:55 AM 40.1 °F 38.0 °F 39.2 °F 97% 30.25 in 10.0 mi NNE 3.5 mph - N/A   Clear
4:15 AM 40.1 °F - 39.2 °F 97% 30.25 in 10.0 mi Calm Calm - N/A   Clear
4:35 AM 39.7 °F 37.6 °F 39.0 °F 97% 30.25 in 10.0 mi NNE 3.5 mph - N/A   Clear
4:55 AM 39.2 °F - 38.3 °F 97% 30.25 in 10.0 mi Calm Calm - N/A   Clear
5:15 AM 37.8 °F - 37.0 °F 97% 30.26 in 10.0 mi Calm Calm - N/A   Clear
5:35 AM 37.8 °F - 37.4 °F 99% 30.27 in 10.0 mi Calm Calm - N/A   Clear
5:55 AM 37.6 °F - 36.9 °F 97% 30.28 in 10.0 mi Calm Calm - N/A   Clear
6:15 AM 37.8 °F - 37.4 °F 99% 30.29 in 10.0 mi Calm Calm - N/A   Clear
6:55 AM 37.0 °F - 36.9 °F 99% 30.29 in 10.0 mi Calm Calm - N/A   Clear
7:15 AM 37.4 °F - 37.2 °F 99% 30.30 in 10.0 mi Calm Calm - N/A   Clear
7:35 AM 38.1 °F - 37.2 °F 97% 30.31 in 10.0 mi Calm Calm - N/A   Clear
7:55 AM 36.7 °F - 36.0 °F 97% 30.31 in 10.0 mi Calm Calm - N/A   Clear
8:15 AM 37.0 °F - 36.9 °F 99% 30.31 in 10.0 mi Calm Calm - N/A   Clear
8:55 AM 41.7 °F 39.8 °F 39.4 °F 91% 30.32 in 10.0 mi ENE 3.5 mph - N/A   Clear
9:35 AM 46.6 °F - 41.7 °F 83% 30.34 in 10.0 mi Calm Calm - N/A   Clear
9:55 AM 49.1 °F - 42.4 °F 78% 30.34 in 10.0 mi Calm Calm - N/A   Clear
10:15 AM 51.6 °F - 43.0 °F 72% 30.33 in 10.0 mi NE 3.5 mph - N/A   Clear
10:35 AM 55.0 °F - 43.7 °F 66% 30.34 in 10.0 mi Calm Calm - N/A   Clear
10:55 AM 56.7 °F - 43.3 °F 61% 30.34 in 10.0 mi Calm Calm - N/A   Clear
11:15 AM 59.4 °F - 43.7 °F 56% 30.34 in 10.0 mi Calm Calm - N/A   Clear
11:55 AM 61.7 °F - 43.7 °F 52% 30.34 in 10.0 mi South 3.5 mph - N/A   Clear
12:15 PM 63.5 °F - 43.2 °F 47% 30.33 in 10.0 mi ESE 3.5 mph - N/A   Clear
12:35 PM 64.0 °F - 41.4 °F 43% 30.33 in 10.0 mi Calm Calm - N/A   Clear
12:55 PM 65.1 °F - 40.3 °F 40% 30.32 in 10.0 mi ESE 3.5 mph - N/A   Clear
1:15 PM 66.0 °F - 37.9 °F 36% 30.31 in 10.0 mi Calm Calm - N/A   Clear
1:35 PM 65.3 °F - 39.2 °F 38% 30.29 in 10.0 mi South 4.6 mph - N/A   Clear
1:55 PM 66.4 °F - 39.7 °F 38% 30.29 in 10.0 mi SSE 3.5 mph - N/A   Clear
2:15 PM 66.4 °F - 40.1 °F 38% 30.28 in 10.0 mi South 3.5 mph - N/A   Clear
2:55 PM 66.6 °F - 40.1 °F 38% 30.26 in 10.0 mi Calm Calm - N/A   Clear
3:15 PM 68.2 °F - 39.7 °F 35% 30.26 in 10.0 mi East 4.6 mph - N/A   Clear
3:35 PM 68.4 °F - 40.3 °F 36% 30.26 in 10.0 mi East 8.1 mph - N/A   Clear
3:55 PM 68.0 °F - 38.7 °F 34% 30.26 in 10.0 mi NE 3.5 mph - N/A   Clear
4:15 PM 68.4 °F - 38.7 °F 34% 30.26 in 10.0 mi Calm Calm - N/A   Clear
4:35 PM 68.4 °F - 39.6 °F 35% 30.26 in 10.0 mi East 4.6 mph - N/A   Clear
5:15 PM 68.0 °F - 39.2 °F 35% 30.25 in 10.0 mi Calm Calm - N/A   Clear
5:55 PM 66.9 °F - 38.5 °F 35% 30.25 in 10.0 mi Calm Calm - N/A   Clear
6:15 PM 65.3 °F - 40.5 °F 40% 30.25 in 10.0 mi Calm Calm - N/A   Clear
6:35 PM 63.7 °F - 40.6 °F 43% 30.26 in 10.0 mi Calm Calm - N/A   Clear
6:55 PM 63.0 °F - 40.3 °F 43% 30.27 in 10.0 mi Calm Calm - N/A   Clear
7:15 PM 60.6 °F - 41.5 °F 49% 30.27 in 10.0 mi Calm Calm - N/A   Clear
7:35 PM 58.3 °F - 42.6 °F 56% 30.28 in 10.0 mi Calm Calm - N/A   Clear
7:55 PM 56.5 °F - 43.3 °F 61% 30.29 in 10.0 mi Calm Calm - N/A   Clear
8:15 PM 55.4 °F - 44.2 °F 66% 30.29 in 10.0 mi Calm Calm - N/A   Clear
8:35 PM 55.2 °F - 44.4 °F 67% 30.29 in 10.0 mi Calm Calm - N/A   Clear
8:55 PM 54.3 °F - 46.2 °F 74% 30.29 in 10.0 mi Calm Calm - N/A   Clear
9:15 PM 52.9 °F - 46.4 °F 79% 30.29 in 10.0 mi Calm Calm - N/A   Clear
9:35 PM 52.2 °F - 46.6 °F 81% 30.30 in 10.0 mi Calm Calm - N/A   Clear
9:55 PM 51.1 °F - 46.6 °F 85% 30.31 in 10.0 mi NNE 3.5 mph - N/A   Clear
10:15 PM 50.2 °F - 46.6 °F 87% 30.31 in 10.0 mi Calm Calm - N/A   Clear
10:55 PM 50.0 °F - 46.0 °F 86% 30.31 in 10.0 mi NE 4.6 mph - N/A   Clear
11:15 PM 50.0 °F - 46.4 °F 87% 30.31 in 10.0 mi NNE 4.6 mph - N/A   Clear
11:35 PM 50.4 °F - 46.4 °F 86% 30.32 in 10.0 mi NNE 4.6 mph - N/A   Scattered Clouds
11:55 PM 49.1 °F - 45.7 °F 88% 30.31 in 10.0 mi NNE 4.6 mph - N/A   Scattered Clouds